Regional Weather Roundup
Issued by NWS Northern Indiana

Home | Current Version | Previous Version | Graphics & Text | Print | Product List | Glossary On
Versions: 1 2 3 4 5 6 7 8 9 10 11 12 13 14 15 16 17 18 19 20 21 22 23 24 25 26 27 28 29 30 31 32 33 34 35 36 37 38 39 40 41 42 43 44 45 46 47 48 49 50
000
ASUS43 KIWX 230510
RWRIWX

KIWX WEATHER ROUNDUP
NATIONAL WEATHER SERVICE NORTHERN INDIANA
100 AM EDT THU MAR 23 2017

NOTE: "FAIR" INDICATES FEW OR NO CLOUDS BELOW 12,000 FEET WITH NO
SIGNIFICANT WEATHER AND/OR OBSTRUCTIONS TO VISIBILITY.

* THESE STATIONS ARE NOT UNDER NWS QUALITY CONTROL. THEY ALSO MAY NOT
  REPORT WEATHER SUCH AS PRECIPITATION OR FOG.

INZ001>027-230600-
NORTHERN INDIANA

CITY           SKY/WX    TMP DP  RH WIND       PRES   REMARKS
GARY*          CLEAR     30  21  68 E3        30.49R
VALPARAISO     CLEAR     27  21  78 E3        30.48R
MICHIGAN CITY* CLEAR     27  21  80 CALM      30.49S
LAPORTE*       CLEAR     25  20  82 E3        30.48S
KNOX*          PTCLDY    28   1  31 SE5       30.47F WCI  23
SOUTH BEND     CLEAR     29  15  56 SE7       30.48F WCI  22
GOSHEN         CLEAR     29  15  56 SE8       30.48F WCI  21
MONTICELLO*    CLEAR     30  20  65 E6        30.46F WCI  24
LOGANSPORT*    CLEAR     28  21  74 E8        30.48F WCI  20
ROCHESTER*     CLEAR     32  21  64 E7        30.48S WCI  26
WARSAW*        CLEAR     28  18  64 SE6       30.48F WCI  22
ANGOLA*        CLEAR     27  16  63 SE5       30.50S WCI  21
FORT WAYNE     PTCLDY    27  18  69 E8        30.49F WCI  19
HUNTINGTON*    CLEAR     28  18  66 E7        30.48F WCI  20
PERU/GRISSOM   CLEAR     29  22  74 E10       30.45F WCI  20
MARION*        CLEAR     29  20  70 E8        30.48F HAZE    WCI  21

$$
INZ028>050-230600-
CENTRAL INDIANA

CITY           SKY/WX    TMP DP  RH WIND       PRES   REMARKS
LAFAYETTE      CLEAR     28  20  71 E8        30.45F WCI  20
KOKOMO*        CLEAR     29  23  78 E9        30.47F WCI  20
MUNCIE*        CLEAR     30  21  69 E10       30.47F WCI  21
INDIANAPOLIS   CLOUDY    32  20  61 E12       30.45F WCI  23

$$
MIZ043>046-050>051-056>058-064>065-071>073-077>080-230600-
SOUTHWEST LOWER MICHIGAN

CITY           SKY/WX    TMP DP  RH WIND       PRES   REMARKS
BATTLE CREEK   CLEAR     29  11  47 SE6       30.50S WCI  23
BENTON HARBOR  CLEAR     24  17  74 CALM      30.49S
COLDWATER*     CLEAR     28  15  60 SE5       30.50S WCI  22
HILLSDALE*     CLEAR     25  18  74 SE6       30.50R WCI  18
HOLLAND        CLEAR     26  18  71 E5        30.51S WCI  20
GRAND RAPIDS   CLEAR     26  11  52 SE5       30.50S WCI  20
KALAMAZOO      CLEAR     28  10  46 SE5       30.50S WCI  23
STURGIS*       CLEAR     28  16  61 SE8       30.49F WCI  20
THREE RIVERS*  FAIR      29  14  54 SE3       30.50F

$$
OHZ001>008-015>018-024>025-230600-
NORTHWEST OHIO

CITY           SKY/WX    TMP DP  RH WIND       PRES   REMARKS
WAUSEON*       FAIR      25  18  74 SE6       30.53R WCI  18
DEFIANCE       CLEAR     25  14  63 SE5       30.53S WCI  19
FINDLAY        CLEAR     24  15  68 E6        30.51F WCI  17
TOLEDO EXPRESS CLEAR     24  15  68 CALM      30.53F
TOLEDO METCALF CLEAR     24  16  71 E3        30.55S
LIMA           CLEAR     24  18  77 E9        30.50F WCI  14

$$
AND FOR LAKE MICHIGAN COASTAL AND OPEN LAKE BUOY OBSERVATIONS

STATION/POSITION TEMP    WIND        PRES    VSBY  WAVE
                 AIR SEA DIR/SP/G                  HT/PER
                 (F)     (DEG/KT/KT) (MB)    (MI)  (FT/S)
CALUMET HARBOR    33      90/  8/ 10 1031.3S
MICHIGAN CITY     28      70/  5/  6   N/A
BURNS HARBOR      29      80/  8/  9 1032.5R
SAINT JOSEPH      26      CALM  /  1 1032.8

$$
&&




USA.gov is the U.S. government's official web portal to all federal, state and local government web resources and services.